Preview of NWS' New Version of Forecast
This preview is not operational and should not be used for support decisions.

Regional Weather Roundup (RWR)

Issued by National Weather Service (NWS)

                            
000
ASPQ40 PGUM 170510
RWRPQ 
WEATHER ROUNDUP FOR THE MARIANAS AND MICRONESIA
NATIONAL WEATHER SERVICE TIYAN GU
300 PM CHST SUN FEB 17 2019

GUZ001>004-170600-
MARIANA ISLANDS-
  
CITY           SKY/WX    TMP DP  RH WIND       PRES   REMARKS
GUAM AIRPORT   MOSUNNY   86  70  58 E20       29.94F HX  90           
ANDERSEN AFB   MOSUNNY   82  68  61 NE15      29.95F                  
ROTA AIRPORT   MOSUNNY   82  68  61 NE14      29.94F                  
TINIAN AP      PTSUNNY  N/A N/A N/A E16       29.93F                  
SAIPAN AP      SUNNY     84  68  58 NE17      29.94F                  

$$

PMZ161-170600-
REPUBLIC OF PALAU-
  
CITY           SKY/WX    TMP DP  RH WIND       PRES   REMARKS
KOROR AP       PTSUNNY   84  73  70 NE13G22   29.88F HX  91           
KOROR WSO      NOT AVBL                                               

$$

PMZ171>174-170600-
FEDERATED STATES OF MICRONESIA-
  
CITY           SKY/WX    TMP DP  RH WIND       PRES   REMARKS
YAP AIRPORT    LGT RAIN  81  77  89 NE10      29.89F                  
CHUUK AP       PTSUNNY   81  79  94 NE10      29.78F                  
POHNPEI AP     NOT AVBL                                               
POHNPEI WSO    CLOUDY    84  75  74 NE8       29.79S HX  92           
KOSRAE AP      LGT RAIN  81  77  89 N24       29.70S                  

$$

PMZ181-170600-
REPUBLIC OF THE MARSHALL ISLANDS-
  
CITY           SKY/WX    TMP DP  RH WIND       PRES   REMARKS
KWAJALEIN AP   HVY RAIN N/A N/A N/A E21G32    29.71R                  
MAJURO AP      PTSUNNY   86  77  74 E18       29.69S HX  97           
MAJURO WSO     PTSUNNY   86  77  74 E9        29.69R HX  97           

$$